This demonstration page uses our WeatherBlox Daily Observations layout. Learn more.

Left ArrowRight Arrow

36.17497, -115.13722

Hourly Observations for September 4, 2015

Temp ( °F °C ) Dew Point ( °F °C ) Humidity (%) Winds ( mph kmh ) Pressure ( in mb ) Visibility ( mi km ) Precip ( " mm )
12:53 am 00:53 Clear 83 28.3 33 0.6 17 17 S 6 9 29.71 1006 10 16 N/A
1:53 am 01:53 Clear 83 28.3 37 2.8 19 19 S 12 19 29.72 1006 10 16 N/A
2:53 am 02:53 Clear 80 26.7 37 2.8 21 21 S 8 13 29.72 1006 10 16 N/A
3:53 am 03:53 Clear 79 26.1 37 2.8 22 22 S 8 13 29.73 1007 10 16 N/A
4:53 am 04:53 Clear 78 25.6 38 3.3 24 24 SSW 5 7 29.74 1007 10 16 N/A
5:53 am 05:53 Clear 75 23.9 37 2.8 25 25 SSE 8 13 29.76 1008 10 16 N/A
6:53 am 06:53 Sunny 77 25 39 3.9 26 26 S 8 13 29.77 1008 10 16 N/A
7:53 am 07:53 Sunny 79 26.1 46 7.8 31 31 SE 12 19 29.78 1008 10 16 N/A
8:53 am 08:53 Sunny 82 27.8 44 6.7 26 26 SSE 16 26 29.79 1009 10 16 N/A
9:53 am 09:53 Sunny 84 28.9 50 10 31 31 SSE 15 24 29.79 1009 10 16 N/A
10:53 am 10:53 Sunny 86 30 52 11.1 31 31 SSE 14 22 29.77 1008 10 16 N/A
11:53 am 11:53 Sunny 89 31.7 50 10 26 26 SSW 13 20 29.74 1007 10 16 N/A
12:53 pm 12:53 Partly Cloudy 91 32.8 50 10 25 25 SSW 9 15 29.71 1006 10 16 N/A
1:53 pm 13:53 Mostly Sunny 92 33.3 48 8.9 22 22 WSW 16 26 29.70 1006 10 16 N/A
2:53 pm 14:53 Sunny 94 34.4 45 7.2 18 18 WSW 16 26 29.67 1005 10 16 N/A
3:53 pm 15:53 Sunny 94 34.4 45 7.2 18 18 WSW 20 31 29.66 1004 10 16 N/A
4:53 pm 16:53 Mostly Sunny 94 34.4 44 6.7 18 18 SW 15 24 29.65 1004 10 16 N/A
5:53 pm 17:53 Mostly Cloudy 93 33.9 43 6.1 18 18 SSW 20 31 29.65 1004 10 16 N/A
6:53 pm 18:53 Sunny 91 32.8 37 2.8 15 15 SSW 21 33 29.65 1004 10 16 N/A
7:53 pm 19:53 Clear 90 32.2 29 -1.7 11 11 SSW 16 26 29.67 1005 10 16 N/A
8:53 pm 20:53 Clear 88 31.1 27 -2.8 11 11 SSW 13 20 29.70 1006 10 16 N/A
9:53 pm 21:53 Clear 86 30 29 -1.7 13 13 SSW 14 22 29.72 1006 10 16 N/A
10:53 pm 22:53 Clear 83 28.3 28 -2.2 13 13 S 12 19 29.73 1007 10 16 N/A
11:53 pm 23:53 Clear 82 27.8 26 -3.3 13 13 S 6 9 29.75 1007 10 16 N/A

Powered by AerisWeather